Wind_Speed
44 44 43 42 39 37 37 36 35 34 33 33 38 43 43 45 44 42 42 41 40 42 43 43 42 42 42 42 42 42 42 43 43 43 44 44 44 44 44 43 44 46 47 47 48 50 51 52 52 54 55 57 58 57 54 49 46 42 37 35 33 34 33 31 31 30 29 28 25 23 21 22 22 24 26 28 27 24 27 32 34 34 34 33 34
42 41 39 37 34 33 31 30 30 28 25 27 31 35 41 45 43 38 38 38 39 40 40 39 39 39 39 38 39 39 40 40 41 42 43 43 43 43 42 43 45 48 49 49 51 51 52 53 54 56 57 59 58 56 52 46 42 39 36 33 32 34 32 30 29 29 28 28 29 28 27 28 29 29 31 33 35 35 35 35 36 36 35 36 37
39 38 34 31 27 26 24 23 24 21 19 28 36 39 45 47 42 40 39 37 37 40 39 38 37 37 37 37 38 39 39 39 39 40 41 41 41 41 42 43 46 48 49 50 52 53 54 55 56 58 57 57 55 52 47 42 38 36 34 32 32 35 33 30 30 31 30 29 28 31 32 33 33 33 34 36 37 37 36 35 35 35 35 35 34
36 35 30 22 18 19 20 20 24 25 27 35 40 42 45 45 40 39 39 36 36 40 40 38 36 36 35 35 36 38 38 37 37 39 40 41 41 42 44 45 46 48 50 52 53 54 55 56 56 56 54 52 49 45 41 37 34 33 32 32 33 37 36 33 33 33 33 33 31 31 33 33 34 34 35 37 38 38 37 35 35 35 35 35 34
34 32 25 17 18 24 23 23 30 35 36 39 40 39 40 40 39 40 41 39 38 40 39 36 35 35 34 33 35 37 37 36 36 36 38 39 40 43 45 47 48 50 52 53 53 53 54 55 54 53 50 46 43 40 37 34 32 32 32 32 34 39 40 37 36 35 35 37 36 34 33 34 35 36 37 39 40 39 37 34 34 34 35 36 36
33 30 23 21 28 33 31 30 36 41 40 38 39 40 40 39 38 40 42 42 41 41 41 39 38 37 35 33 33 34 36 36 35 35 36 35 36 39 41 44 46 48 50 50 50 50 51 52 51 49 46 41 39 36 34 33 32 31 32 32 34 40 43 40 38 39 38 37 36 34 34 35 37 38 40 41 41 40 37 34 33 32 33 35 38
31 28 25 29 35 37 37 37 38 42 42 39 39 39 40 41 40 42 44 45 44 43 43 42 40 38 37 35 33 33 34 34 34 35 36 36 34 35 36 37 40 42 44 45 46 48 49 49 49 47 43 38 35 34 33 32 31 32 33 33 33 38 44 44 41 41 42 40 38 35 34 36 37 38 40 40 41 41 39 37 35 34 34 36 38
30 28 29 35 38 40 42 39 36 40 42 40 40 39 40 44 46 49 50 48 46 46 45 44 42 40 38 37 36 34 33 33 34 34 36 38 37 36 35 35 37 39 42 44 46 47 47 47 47 46 41 36 33 32 32 31 31 31 33 34 33 35 41 46 45 43 44 45 45 43 40 38 38 39 39 39 40 41 42 41 41 40 40 40 40
30 31 32 35 38 41 44 43 40 40 40 40 41 42 43 46 48 49 51 51 49 47 45 45 44 42 40 40 39 36 34 34 36 37 37 37 37 37 36 35 37 39 42 44 46 45 44 45 46 43 38 35 33 32 31 31 30 31 32 34 34 34 36 41 45 46 45 47 48 48 46 44 43 44 43 42 42 43 44 45 46 45 45 44 44
32 32 33 34 40 44 44 44 41 38 38 39 40 43 46 48 49 49 50 50 47 45 43 43 43 43 43 42 40 37 37 37 38 38 38 38 38 37 37 37 37 39 42 43 42 41 42 44 42 38 35 33 31 30 29 29 29 30 31 32 34 35 35 37 40 43 46 47 49 50 50 50 50 50 49 48 48 47 47 48 48 48 47 46 46
33 33 34 36 42 45 44 43 41 38 40 42 43 43 46 48 49 49 51 51 49 47 45 44 43 44 45 45 43 41 41 39 38 37 38 40 38 37 36 36 36 38 39 38 37 38 40 40 36 33 31 31 29 27 26 26 26 28 29 31 32 34 36 37 38 40 42 45 47 49 51 52 54 54 54 53 52 51 50 50 49 49 49 48 47
34 34 36 39 44 46 45 43 41 41 44 47 48 46 44 45 45 46 50 53 53 49 46 45 44 45 47 47 46 45 44 42 39 37 38 40 38 35 34 34 35 36 37 37 37 38 37 34 31 30 29 27 26 25 24 24 24 25 26 28 30 32 34 36 37 39 41 43 45 47 48 50 51 52 53 53 53 53 53 52 50 50 49 48 47
33 35 39 43 47 47 44 41 40 41 45 48 50 49 48 47 46 46 49 51 52 49 46 44 44 45 47 49 48 47 45 42 39 38 40 43 42 39 36 35 35 37 38 40 40 38 33 30 28 27 25 24 24 23 23 23 23 23 24 24 26 28 30 32 34 36 39 41 42 44 46 47 48 49 50 51 52 53 53 52 51 50 49 48 46
32 37 42 46 49 49 45 42 41 43 45 46 48 50 53 53 50 50 50 50 48 46 43 43 44 45 47 49 49 48 46 43 40 39 40 43 44 43 42 40 40 41 41 41 40 36 32 29 27 25 24 23 23 23 23 23 23 23 23 23 24 24 25 27 29 31 33 35 38 40 41 43 44 46 47 48 49 50 50 50 49 49 48 46 46
33 38 44 48 51 52 49 46 46 47 46 45 46 50 54 57 55 52 50 48 46 43 42 41 43 45 46 47 48 48 47 46 43 42 43 44 44 45 45 45 45 45 44 43 42 41 39 36 33 30 27 24 23 24 24 24 24 24 24 24 25 25 25 26 27 29 30 32 33 35 36 38 39 40 41 42 43 45 46 47 48 48 48 47 46
34 39 42 45 48 51 50 49 49 50 47 44 45 48 52 56 56 53 50 49 47 46 45 44 45 46 46 47 48 47 46 45 45 45 45 47 47 48 48 48 48 48 47 48 49 50 49 46 43 40 35 29 26 24 24 24 26 26 27 26 26 26 27 28 29 30 31 32 33 34 35 36 37 38 38 39 40 41 41 42 44 46 47 48 48
33 36 37 37 40 44 46 47 48 48 47 44 44 46 49 51 53 53 53 53 52 50 49 48 48 47 47 47 48 48 45 44 44 45 45 47 49 51 51 51 51 52 52 54 55 55 55 53 50 48 45 39 32 28 26 25 25 27 29 30 30 30 29 29 30 31 32 33 34 35 35 35 36 36 37 37 38 39 40 41 42 43 44 45 46
32 33 32 30 34 39 42 46 48 47 46 45 44 44 46 49 51 52 54 56 56 55 54 52 51 49 47 46 47 47 46 45 45 46 46 47 49 50 52 52 52 53 54 55 56 57 57 56 54 52 50 48 42 36 31 28 27 27 29 32 33 34 34 34 34 34 34 35 35 36 36 37 37 37 36 36 37 39 40 41 42 43 43 43 44
33 34 30 28 34 38 41 46 50 49 48 47 45 44 44 47 50 49 49 52 54 56 56 56 54 50 48 47 46 46 47 47 47 48 48 48 49 50 50 51 51 51 52 54 55 56 56 57 56 55 54 53 50 46 40 35 32 31 31 33 34 36 37 38 38 39 39 40 40 40 40 40 40 39 38 38 38 39 40 41 42 42 43 43 44
35 34 29 29 35 39 42 47 51 52 51 50 48 45 42 43 46 46 46 47 49 51 53 52 49 47 46 45 45 45 46 47 47 48 49 50 50 50 50 51 51 52 53 54 55 57 57 58 58 58 56 54 53 51 48 43 39 38 37 37 38 40 41 42 43 43 44 45 46 47 47 46 44 43 42 41 40 40 40 41 42 42 43 43 43
37 31 27 31 38 41 42 46 50 52 52 50 49 47 43 42 44 45 46 47 47 48 48 45 43 43 45 45 45 46 46 47 48 49 50 50 51 52 52 52 53 53 55 56 58 59 60 60 59 58 57 55 53 52 51 49 47 44 42 43 44 46 47 48 49 48 49 51 52 53 52 51 48 46 45 44 43 42 41 41 42 43 43 43 44
42 38 34 37 42 43 44 45 48 51 50 46 44 45 44 45 47 47 47 46 45 46 46 45 46 48 49 48 47 48 48 48 49 50 50 51 51 52 53 53 53 54 55 57 58 59 60 59 58 57 56 55 54 53 52 51 50 48 46 46 48 49 50 51 52 52 54 57 58 56 54 52 50 48 48 47 47 45 43 42 43 44 44 45 45
47 48 46 46 48 48 47 48 48 51 51 46 42 41 43 47 49 49 48 47 45 46 47 46 46 48 49 49 47 46 46 47 48 50 51 52 52 52 52 52 52 53 55 56 57 58 58 57 57 57 56 55 55 54 53 52 52 50 49 49 50 52 52 52 53 54 57 59 60 58 55 53 51 50 50 50 49 47 45 44 44 44 45 46 46
47 50 51 51 51 50 50 51 51 51 51 50 46 44 45 48 49 50 50 49 47 46 45 42 41 44 47 48 48 46 47 50 53 55 55 53 53 53 53 53 53 53 54 55 56 57 58 58 58 58 57 56 56 55 54 54 53 52 51 51 52 52 52 53 56 59 61 61 60 57 56 54 54 53 53 53 52 50 47 46 46 45 45 46 47
44 46 48 49 49 49 50 51 51 51 51 51 49 48 49 50 51 52 51 50 48 47 45 41 39 43 45 46 48 49 51 53 56 59 59 58 56 56 56 55 54 55 56 56 57 58 59 60 60 60 59 59 58 58 57 57 56 55 54 54 53 54 55 58 61 63 64 63 61 58 56 55 56 56 56 55 54 52 50 48 48 47 45 45 47
41 42 43 44 46 49 51 51 52 52 52 52 51 52 54 54 54 53 52 51 51 50 47 41 37 37 39 42 46 50 51 51 52 56 59 60 59 58 57 57 56 56 57 58 59 59 60 61 61 61 61 61 61 61 62 61 60 60 60 60 60 61 63 65 67 66 64 63 61 59 58 56 56 57 57 56 55 54 51 50 49 47 45 45 46
41 41 40 38 39 45 51 53 54 53 52 53 55 55 56 56 54 52 52 52 51 49 45 43 43 43 42 41 42 44 43 41 42 46 51 55 57 57 58 58 59 59 59 59 60 60 61 62 63 63 63 63 64 64 65 65 64 64 65 65 66 68 70 70 70 68 65 64 62 60 59 59 59 58 57 56 55 53 50 48 48 49 48 47 46
40 42 43 39 36 41 50 53 53 51 49 52 55 54 54 53 51 50 53 55 53 51 49 48 49 50 46 42 41 42 40 36 36 41 46 50 53 54 56 58 59 61 62 63 63 63 63 63 64 64 64 65 66 67 67 68 68 68 69 69 70 72 72 71 70 68 66 65 64 62 60 59 59 59 58 56 53 50 48 47 48 50 51 49 47
39 41 45 45 42 44 49 53 54 53 52 54 54 54 53 51 47 47 52 55 52 50 48 47 47 48 46 43 42 44 44 42 42 45 48 51 54 57 60 62 63 64 64 64 63 63 63 62 63 63 64 65 66 67 68 69 70 70 70 71 71 72 72 71 70 69 69 67 65 62 60 59 60 60 58 55 52 50 49 49 49 50 50 48 47
47 48 50 52 53 54 54 57 59 59 60 61 59 58 58 57 55 54 56 54 51 48 46 44 45 47 48 47 45 44 46 47 51 55 58 58 59 61 63 65 66 67 67 66 64 63 63 62 61 61 62 64 65 66 68 69 70 70 70 70 71 71 72 71 71 71 69 68 66 64 63 62 61 60 57 54 53 53 52 52 52 50 48 47 47
61 63 64 63 64 65 65 65 66 67 67 68 67 67 67 67 67 67 64 62 60 60 59 58 55 50 48 50 52 52 52 54 57 61 62 61 59 59 61 63 65 66 67 67 66 66 66 66 65 65 66 67 68 69 70 70 70 70 71 71 71 71 71 71 71 70 68 67 67 66 64 62 59 57 55 55 56 56 56 55 54 52 50 48 47
68 69 70 70 69 69 70 69 70 70 70 70 70 70 70 71 72 71 70 68 67 67 68 67 65 62 59 58 59 61 61 63 63 62 62 60 57 57 59 61 62 65 66 67 67 68 69 70 71 72 73 73 73 73 73 73 72 71 71 71 71 71 70 69 68 66 65 65 64 63 63 61 60 59 59 59 59 59 60 58 55 52 52 51 48
66 66 67 67 67 67 68 68 68 69 71 71 72 71 72 73 73 73 72 71 70 70 70 69 69 70 69 67 65 65 66 67 66 63 61 57 51 49 54 57 59 62 64 66 69 71 72 74 75 76 77 77 77 77 76 75 73 71 70 70 70 69 68 66 64 63 64 65 64 62 61 60 59 60 61 61 61 61 60 57 53 50 50 51 50
65 65 65 65 66 67 68 69 70 72 73 74 74 74 74 73 73 73 73 73 74 74 74 74 73 73 73 73 71 70 69 69 68 66 65 61 55 56 63 66 66 69 71 73 75 76 77 77 77 77 78 78 77 77 76 74 73 71 70 69 69 68 67 65 64 64 65 65 64 62 60 59 59 60 61 62 61 59 57 56 55 53 52 52 53
68 69 69 69 70 71 72 73 73 74 74 74 75 75 75 75 74 74 75 75 76 77 77 78 78 77 77 77 76 75 74 73 73 73 73 73 72 74 78 80 80 81 81 81 81 81 81 80 79 78 77 76 75 75 74 74 73 72 71 70 70 69 67 66 66 67 66 65 64 62 62 61 61 62 63 63 61 59 59 60 61 60 60 60 61
69 70 70 70 70 71 71 71 71 71 71 72 74 75 75 75 74 73 73 73 74 75 76 77 78 78 78 77 76 76 75 75 76 76 76 77 78 79 82 83 83 82 81 81 81 81 80 79 78 77 76 76 75 75 75 75 75 74 73 72 72 71 70 68 68 69 69 68 67 65 65 65 65 67 69 69 67 66 65 65 67 68 71 72 74
63 64 64 65 65 66 66 66 66 67 67 68 70 71 72 72 71 70 70 71 71 72 73 74 75 75 75 75 75 75 74 74 74 75 75 76 76 78 79 79 79 79 79 80 80 81 80 79 78 78 77 77 77 76 76 76 76 76 75 74 73 73 72 71 70 70 71 72 72 72 72 72 72 74 75 75 74 74 74 73 75 78 80 81 80
62 63 63 64 65 65 65 65 64 64 65 65 67 69 70 70 70 70 70 70 71 71 72 72 73 72 72 71 72 72 73 73 73 74 74 75 76 77 78 78 77 77 77 79 80 81 80 79 79 78 77 77 78 78 78 77 77 78 77 76 76 75 75 74 73 74 74 75 76 77 77 77 78 79 79 78 78 79 79 79 80 83 84 83 79
64 65 66 66 67 67 67 66 66 66 66 66 67 69 70 71 72 72 72 72 72 72 72 72 72 71 71 71 72 72 73 74 74 75 75 75 76 77 78 78 77 76 77 79 81 82 81 80 80 79 78 78 79 79 79 79 79 79 79 79 78 78 77 77 77 77 76 77 78 79 79 80 80 81 81 81 80 80 80 80 81 82 83 80 76
68 69 69 69 69 69 69 69 69 69 68 69 70 71 72 73 74 74 74 74 75 74 74 73 72 72 73 73 74 74 74 75 75 76 76 76 76 77 78 78 77 77 77 79 80 80 80 80 79 79 77 76 76 76 77 78 78 78 78 77 77 77 77 77 77 77 76 76 76 77 77 77 78 79 79 79 79 78 77 76 75 75 76 76 75
71 71 71 71 71 72 72 72 72 71 71 72 72 73 74 75 76 76 76 77 77 77 77 76 75 75 74 75 74 73 73 73 73 73 73 73 74 74 75 75 75 74 73 74 74 74 74 73 73 72 71 69 69 70 71 72 73 73 74 74 74 74 74 74 74 74 73 73 74 74 74 74 75 77 77 76 76 74 73 72 71 70 71 72 71
70 70 71 71 71 71 71 72 72 72 72 72 73 73 74 75 76 77 77 77 77 77 78 77 77 77 76 76 75 74 73 73 72 71 71 71 72 72 73 73 73 72 71 70 71 71 70 70 69 69 68 66 66 67 68 70 70 71 71 71 71 72 72 72 72 71 71 72 73 74 75 76 77 77 75 74 73 72 71 71 71 70 69 69 68
68 69 69 69 70 70 70 70 71 71 71 72 72 72 73 74 75 76 76 76 76 76 76 76 77 77 77 77 76 76 75 75 75 74 73 73 74 74 74 74 74 74 73 72 72 72 71 70 69 69 68 66 66 66 67 68 69 69 70 71 71 71 71 71 71 72 73 74 74 75 78 80 80 77 74 73 71 70 70 70 70 69 68 68 68
68 69 69 70 70 70 70 71 71 71 71 72 72 73 73 73 73 74 74 74 74 75 75 75 76 76 76 77 77 78 78 78 78 78 77 77 77 77 77 77 78 78 77 77 76 76 75 74 72 70 69 67 66 66 67 67 68 70 71 71 72 73 73 73 74 75 76 77 77 79 83 84 81 78 76 74 72 70 68 68 68 68 68 69 70
71 71 71 71 71 71 72 72 72 73 73 73 73 74 74 74 73 74 73 73 73 73 74 74 75 76 76 77 78 79 80 80 80 80 81 80 80 80 80 80 80 80 80 81 81 82 82 81 79 76 74 72 69 69 69 71 73 75 76 75 75 76 76 76 77 78 79 80 82 84 86 87 85 82 79 77 75 73 71 69 69 69 69 69 70
74 74 73 73 73 73 73 74 74 74 74 74 75 75 75 74 74 74 74 74 74 75 75 76 77 78 78 79 79 80 81 82 82 82 83 83 83 83 83 83 83 83 84 84 85 85 86 86 85 85 84 82 79 78 78 79 80 81 81 80 79 78 77 78 79 79 80 82 84 87 89 90 89 87 84 81 80 79 77 75 73 72 71 71 71
78 78 77 77 77 76 77 77 77 77 76 77 77 77 77 77 76 76 77 77 77 77 78 79 79 80 80 81 81 82 82 83 84 84 85 85 85 85 86 86 87 87 87 87 87 88 88 88 88 88 87 87 86 84 83 83 83 82 82 80 79 77 77 79 80 81 82 84 87 89 91 93 93 91 87 84 83 83 82 80 78 76 75 75 74
81 81 80 80 80 80 81 82 82 81 81 81 81 81 81 80 80 80 81 81 81 82 82 83 83 84 84 84 85 85 86 86 86 87 87 88 88 88 87 88 88 89 89 89 88 88 88 88 88 88 87 86 85 84 83 83 84 83 81 79 78 77 77 79 80 82 84 86 88 91 94 97 97 95 90 87 85 85 85 83 81 80 80 78 77
83 83 83 83 84 84 85 85 85 85 85 85 85 85 85 84 84 85 85 85 86 86 87 87 88 89 89 89 90 91 91 91 91 91 91 92 92 92 92 92 92 93 93 93 92 91 90 90 89 88 87 86 86 85 84 85 85 83 80 79 78 78 79 80 80 82 84 87 89 92 96 99 99 97 94 90 87 85 85 84 84 83 82 80 79
86 86 85 86 87 88 88 88 88 88 88 88 88 88 88 88 88 88 89 89 89 90 90 91 92 92 93 94 95 95 95 95 95 95 95 95 95 95 95 94 95 96 96 96 95 94 94 93 91 90 88 87 87 86 85 85 85 84 82 79 78 79 80 80 81 82 83 86 90 95 98 99 98 97 96 94 91 88 86 85 85 84 83 82 81
88 88 88 89 90 90 91 91 91 91 91 91 91 92 92 92 92 92 92 92 93 93 94 94 95 96 97 98 98 98 98 98 98 97 97 97 97 96 95 94 93 94 95 95 94 93 93 92 91 89 88 87 86 86 85 85 84 84 82 80 79 79 79 79 80 81 83 88 93 96 97 97 97 96 96 95 93 91 88 86 84 82 82 82 83
Wind_Direction
259 260 261 264 267 269 271 275 278 284 285 280 282 282 279 278 280 283 283 283 284 284 282 281 280 279 279 280 280 279 278 276 275 274 272 270 266 264 264 264 264 261 258 260 267 274 279 283 286 289 290 292 293 294 295 294 294 292 286 272 255 247 249 249 247 247 249 249 240 228 221 220 229 242 248 249 251 256 263 266 269 271 271 269 268
258 260 262 264 268 272 276 281 281 283 280 269 264 263 265 270 275 278 279 280 279 278 281 283 281 281 280 280 279 278 277 277 276 274 272 270 267 264 261 260 260 259 259 263 270 276 281 284 287 289 292 293 294 293 292 292 291 288 282 269 248 239 244 245 243 242 239 241 241 236 230 226 229 238 247 249 248 251 259 266 270 272 272 271 272
257 258 259 263 271 277 278 277 275 270 256 247 244 246 255 265 271 272 271 273 271 272 280 286 284 283 282 279 278 276 275 275 275 273 271 269 266 263 260 259 260 262 265 269 274 280 282 284 287 291 293 294 293 291 290 289 287 283 277 266 245 235 239 242 241 241 234 233 239 241 239 238 239 242 247 250 252 255 260 264 264 265 268 271 273
255 254 253 258 264 262 256 252 252 246 234 235 240 245 253 260 264 265 264 262 263 268 277 284 287 289 287 282 279 277 276 274 273 272 271 268 265 261 259 260 263 266 269 273 278 282 283 285 289 292 293 293 291 289 287 285 282 278 271 263 246 234 236 240 240 241 236 232 235 239 239 241 243 245 248 252 256 259 263 265 265 265 268 270 271
251 250 246 235 225 229 229 229 239 243 235 233 238 244 253 259 260 261 262 262 264 267 273 280 288 292 292 290 287 283 280 277 274 271 268 266 263 260 259 261 265 268 271 274 279 282 286 288 290 292 293 293 291 288 285 282 278 275 269 261 247 236 237 242 240 240 238 234 237 243 245 245 243 243 247 252 256 261 266 269 269 271 273 273 273
246 246 237 215 212 216 215 218 233 242 240 237 241 248 255 261 263 262 262 265 266 266 270 277 283 285 290 294 293 287 284 282 277 271 265 262 260 260 261 263 267 270 272 275 279 284 288 291 293 294 294 292 290 288 284 281 278 275 271 263 251 240 240 244 243 241 241 239 239 245 251 250 246 245 246 250 253 259 266 270 272 275 276 275 275
241 240 229 215 214 213 214 220 231 240 241 242 246 252 255 256 261 265 265 265 265 265 268 274 276 280 284 289 292 289 287 284 280 273 266 262 260 259 261 265 270 273 276 280 284 288 292 294 296 297 295 292 290 287 283 279 277 275 272 268 258 246 242 245 246 244 245 246 246 245 247 248 248 247 247 248 251 255 262 268 271 274 276 276 278
238 234 224 219 215 212 217 221 226 235 240 241 242 244 247 248 254 262 265 266 266 265 267 270 273 279 282 285 289 289 287 284 281 275 270 266 263 261 262 267 273 276 280 286 290 293 295 296 298 297 294 292 290 287 283 279 276 274 273 271 266 255 247 246 248 249 248 250 251 252 251 250 250 251 252 252 253 256 261 267 272 275 278 279 279
236 230 224 221 215 214 221 222 221 233 240 239 239 238 238 243 248 255 261 266 267 266 267 269 272 278 281 282 284 284 282 282 281 276 271 268 266 265 266 268 273 278 283 288 291 292 295 298 299 296 292 291 290 287 284 280 277 275 274 273 271 266 257 251 251 253 253 253 255 257 259 259 258 258 259 260 261 263 265 269 274 278 280 280 279
235 230 226 220 212 214 221 220 219 231 236 234 238 239 238 241 246 251 256 261 264 264 265 268 271 275 278 279 280 280 279 280 282 279 270 266 266 266 267 269 274 281 284 286 288 290 295 300 300 295 290 290 289 286 284 281 277 275 274 273 272 270 267 262 258 257 258 259 259 260 262 263 264 264 265 266 267 268 270 273 276 278 279 279 279
235 229 224 217 212 216 220 218 219 228 234 236 240 242 242 243 247 253 255 257 259 262 264 265 267 271 273 275 275 277 279 280 283 280 268 263 265 267 270 273 277 281 283 283 287 291 297 302 298 292 290 289 288 287 285 283 279 275 272 272 271 270 269 267 265 263 262 262 263 263 264 264 265 266 267 268 270 271 272 274 276 278 278 278 276
232 227 220 213 213 218 220 219 222 231 240 244 244 242 242 244 249 256 257 256 257 260 263 264 266 268 269 270 271 273 276 278 280 279 269 263 264 268 272 276 278 280 281 283 288 292 298 302 297 291 291 290 289 289 287 285 282 278 274 272 271 271 270 270 268 267 266 266 266 266 266 266 266 267 268 269 271 272 273 274 276 277 277 276 274
227 222 218 213 213 220 224 220 222 234 242 246 245 240 238 241 250 257 256 255 256 258 262 265 267 270 270 270 270 270 273 276 277 277 272 267 266 267 269 273 277 279 281 284 288 290 295 301 299 294 294 293 292 291 289 287 284 281 278 275 274 274 274 274 273 272 271 271 271 270 270 270 270 270 271 271 272 273 274 274 275 275 275 273 271
219 217 215 214 216 221 225 221 221 231 240 244 245 241 238 241 251 257 256 255 257 259 262 267 269 272 273 273 271 269 270 272 273 273 271 269 267 267 268 270 275 278 280 282 285 287 289 294 297 297 297 295 293 291 289 288 287 285 284 281 278 276 276 276 276 276 276 275 274 274 274 274 274 274 274 274 275 275 275 275 275 274 272 270 267
214 212 213 216 220 223 227 227 226 230 238 245 246 243 242 243 249 255 255 254 256 257 261 266 270 272 274 275 274 272 271 271 270 268 267 266 265 266 267 269 273 276 278 279 282 284 285 286 288 291 295 295 291 288 287 286 286 286 285 283 282 280 279 278 277 276 276 276 275 275 275 275 275 275 275 275 276 276 276 276 274 273 271 268 265
213 211 213 217 222 224 228 232 232 233 238 243 243 243 244 242 244 250 254 255 257 257 260 265 268 271 275 276 276 275 273 272 271 269 266 263 263 263 265 267 270 272 274 276 278 280 282 282 282 283 286 290 289 286 285 285 284 284 283 281 280 280 281 280 280 279 278 277 276 276 275 275 275 276 276 276 276 276 276 276 275 274 272 269 266
208 208 212 220 226 228 230 232 233 236 240 242 241 243 243 240 241 246 254 260 261 259 262 266 268 270 275 277 277 274 270 268 268 267 265 263 263 265 266 268 270 271 272 274 275 276 277 278 278 278 280 283 284 281 282 283 284 286 285 282 279 278 280 281 281 281 281 281 280 278 277 276 276 277 278 278 278 277 277 276 276 275 274 272 270
205 204 206 220 233 237 237 236 235 239 242 241 241 241 241 240 241 247 255 262 263 260 262 266 268 269 272 275 276 273 268 264 263 262 262 264 266 268 270 271 272 272 271 272 272 273 274 274 274 274 276 279 280 280 279 279 281 285 286 285 282 279 279 281 282 281 280 281 281 282 281 280 279 278 278 279 278 278 277 276 275 274 274 274 273
204 202 205 223 238 242 244 241 238 239 241 240 239 240 240 240 242 247 254 259 262 262 262 265 268 269 269 272 275 273 268 265 264 263 264 265 267 269 271 273 273 272 271 270 270 270 271 271 272 272 274 275 277 279 280 279 279 282 284 285 285 283 282 283 285 284 282 281 280 281 281 281 281 281 280 280 279 279 278 277 276 276 275 275 274
205 207 215 229 238 241 243 242 238 237 239 239 239 240 240 241 242 246 252 256 260 262 263 266 269 268 267 270 272 272 270 269 269 269 269 270 270 271 272 272 272 271 270 269 268 268 268 269 270 272 273 274 274 276 278 279 279 280 281 283 285 286 286 287 288 288 288 287 284 281 280 279 279 280 280 280 280 279 279 279 279 278 277 276 276
206 212 219 224 231 235 237 238 237 235 237 239 240 239 239 240 241 244 251 256 258 259 259 263 268 270 270 271 273 274 273 273 274 274 274 273 273 273 272 271 271 271 270 268 267 268 269 270 271 271 272 273 273 272 274 277 279 280 280 282 284 286 287 288 290 292 293 294 291 286 281 278 277 277 278 278 278 279 280 280 279 279 278 277 277
209 212 215 221 228 232 234 235 234 232 234 239 242 240 240 240 239 242 249 255 258 257 256 258 263 268 273 276 277 279 278 278 279 279 278 276 275 274 273 272 272 271 270 270 270 271 271 271 272 272 272 272 273 273 273 274 277 278 279 281 283 285 286 286 288 291 294 296 294 289 283 278 276 277 277 277 277 278 279 279 279 278 278 278 277
219 219 221 227 233 234 234 234 232 230 231 236 241 241 240 240 239 242 249 255 257 257 258 262 265 266 271 276 278 281 282 281 282 282 281 280 278 275 273 272 272 271 270 271 272 271 271 270 270 271 272 273 274 274 274 275 276 277 278 279 282 284 285 285 286 289 292 294 292 289 284 279 276 277 278 277 277 278 279 280 280 279 279 279 279
227 228 228 231 234 234 233 232 231 230 230 234 239 240 241 242 242 244 250 255 256 256 258 265 269 267 268 273 277 278 279 280 281 281 280 278 276 275 274 273 272 271 270 270 270 269 268 268 268 269 270 272 273 274 274 275 276 276 277 279 281 283 284 285 286 289 291 291 290 287 284 279 275 276 278 279 279 279 279 280 280 280 281 281 281
229 228 228 228 230 231 231 231 232 232 230 232 236 239 242 245 247 249 252 254 253 253 255 259 265 267 266 269 272 274 277 279 279 278 277 275 272 272 272 272 272 271 270 269 268 268 267 267 268 268 269 269 270 271 273 274 274 275 275 276 278 280 281 284 287 289 290 289 288 285 283 280 277 276 278 280 280 279 279 279 279 279 280 280 281
226 224 226 230 233 233 234 235 234 234 234 233 235 241 246 248 250 251 252 252 249 249 252 252 253 259 265 268 271 275 279 280 279 277 276 274 272 270 269 269 270 270 270 270 269 269 269 269 269 269 269 270 270 271 272 272 273 272 273 274 276 278 281 284 288 289 288 288 287 284 282 281 280 279 279 280 280 279 279 279 279 279 278 279 280
226 224 225 229 233 233 233 235 235 235 238 239 239 244 248 248 249 251 253 252 248 247 250 250 249 255 261 265 269 273 275 276 276 275 275 275 275 274 272 270 270 269 268 269 269 270 271 271 272 272 272 272 272 272 273 273 273 273 274 276 278 281 283 286 288 287 287 287 287 284 282 283 282 281 279 279 278 278 277 278 279 281 282 282 281
226 223 220 219 222 224 226 231 233 234 237 240 239 241 244 245 246 250 252 251 250 251 252 252 254 257 258 260 263 262 261 264 266 266 270 274 275 276 276 274 273 272 271 270 270 270 270 272 272 273 273 274 274 274 274 275 276 277 279 281 283 284 285 286 287 286 286 287 286 284 283 284 283 281 280 279 277 275 275 277 279 283 284 284 282
222 218 216 216 219 221 222 225 229 232 235 237 238 240 242 243 243 247 250 250 250 252 252 252 255 256 255 257 260 256 251 252 256 259 263 268 270 273 274 274 273 273 273 273 272 272 272 272 273 273 274 275 275 276 278 279 280 281 283 283 284 285 286 287 287 286 286 287 285 284 284 284 284 283 281 279 277 276 275 277 280 284 285 285 284
226 225 224 225 226 227 227 227 229 233 236 238 240 243 246 246 246 247 250 249 248 247 248 250 253 254 252 250 249 248 245 246 251 257 259 263 267 269 269 268 269 270 271 272 272 273 274 274 274 274 275 276 277 279 280 281 282 283 283 284 284 285 286 287 287 287 287 286 284 283 284 285 285 283 280 278 278 278 278 280 283 285 284 284 285
235 236 236 236 236 236 237 237 237 238 240 242 244 246 248 249 250 251 251 250 248 249 251 252 252 251 247 242 240 243 246 248 252 257 260 263 265 264 262 263 265 267 269 271 272 273 274 275 275 275 276 277 279 280 281 282 283 283 283 283 284 284 285 285 286 286 285 284 283 284 284 285 284 281 278 278 279 279 280 283 286 285 283 283 284
237 239 239 239 240 241 243 244 245 246 247 248 248 247 247 248 250 251 251 251 251 251 252 252 252 251 249 247 245 244 247 252 256 259 262 264 265 264 263 263 264 266 268 270 271 272 274 275 276 276 277 277 278 278 279 280 281 282 282 282 282 282 282 282 283 282 281 281 282 283 283 283 280 278 277 278 279 280 282 284 285 284 283 283 283
236 238 239 239 241 243 245 247 249 251 252 253 252 251 250 249 249 250 251 252 253 253 252 252 252 252 252 252 251 248 249 254 258 259 260 262 264 266 265 263 263 265 267 269 270 272 273 274 275 276 277 277 277 278 278 278 278 278 279 280 280 280 280 280 279 278 278 280 280 280 280 280 278 278 279 281 282 283 284 285 285 284 282 282 283
234 236 238 239 240 242 245 248 251 252 254 255 255 254 254 253 252 251 252 253 253 253 253 253 254 254 255 255 254 252 251 253 255 255 255 255 256 260 264 265 266 267 269 270 271 271 272 272 273 274 275 275 276 277 277 277 277 277 277 277 278 278 278 277 276 275 276 277 278 277 276 275 275 276 279 281 283 283 282 282 282 281 280 280 281
237 238 240 241 243 244 246 248 250 251 252 254 255 255 255 255 255 255 255 255 254 253 253 254 255 256 256 257 257 256 254 253 254 254 254 254 253 255 260 263 265 267 269 270 270 271 271 271 271 272 273 273 274 275 275 276 276 276 276 276 276 276 275 275 274 274 274 275 275 274 272 271 272 273 275 277 277 277 277 277 278 278 278 278 279
241 242 243 244 245 246 247 248 250 251 253 254 255 255 255 256 256 256 256 255 255 254 254 255 255 255 256 256 257 257 256 256 256 255 256 256 256 257 259 261 264 265 267 268 269 269 269 269 270 270 271 271 272 273 274 274 275 275 275 275 275 275 275 274 274 274 274 274 273 271 269 268 269 270 271 272 272 271 272 273 275 277 278 279 280
247 248 248 249 249 249 250 251 252 253 255 256 257 257 257 256 256 256 256 256 256 255 255 254 255 255 255 256 256 257 258 258 258 258 258 259 259 260 260 261 263 264 265 266 267 267 267 267 268 268 269 269 270 271 271 272 273 273 273 273 273 273 274 273 273 273 273 273 273 272 270 269 269 269 270 270 270 270 270 271 274 276 278 279 280
251 251 252 253 253 254 254 255 255 256 256 258 259 260 260 259 258 257 256 257 257 257 256 257 257 257 257 258 258 259 260 260 260 260 260 260 260 261 261 262 263 264 265 265 266 266 266 267 267 267 268 268 269 269 270 270 270 271 271 271 271 271 271 271 271 270 270 271 271 271 271 271 270 270 270 270 270 270 270 271 273 275 277 278 280
252 252 252 253 254 255 255 256 257 257 258 258 259 261 262 262 262 261 261 260 259 259 258 258 259 259 260 259 259 260 260 261 261 261 261 261 262 263 263 263 264 264 264 265 266 267 268 268 268 268 268 269 269 269 269 269 269 269 269 269 269 269 269 269 269 269 269 269 269 270 270 270 270 270 270 270 270 270 270 271 272 273 275 277 279
253 254 254 255 256 257 257 258 258 258 259 259 260 261 262 263 264 264 265 265 265 264 263 262 262 262 262 261 261 260 260 260 261 262 262 263 263 264 264 264 264 264 264 265 266 267 268 268 269 269 269 268 268 268 268 268 268 268 267 267 268 268 268 268 268 268 268 268 268 268 268 268 268 268 269 269 270 270 271 271 272 273 274 276 278
255 255 256 257 258 258 259 259 260 260 260 260 260 261 262 263 264 265 266 266 267 268 268 268 268 268 267 266 266 265 264 264 264 264 265 265 265 264 264 264 264 263 263 263 264 264 265 265 266 265 265 265 265 266 266 267 267 267 266 266 266 267 267 268 268 269 269 269 269 268 268 267 267 266 267 267 269 271 272 272 273 274 274 275 276
255 256 257 257 258 259 259 260 260 261 261 261 261 261 262 263 264 265 265 266 267 268 269 270 271 272 272 272 272 272 272 271 271 270 270 270 270 269 268 268 267 265 264 264 263 263 262 261 260 260 259 259 261 262 264 265 266 266 267 267 267 267 267 268 269 270 270 270 270 271 271 269 267 266 266 267 269 270 271 272 272 273 273 273 273
254 255 256 256 257 258 258 259 260 260 261 261 261 262 262 263 264 265 266 267 268 269 270 270 271 272 274 274 275 275 275 275 275 275 275 275 275 275 274 274 274 273 272 271 269 268 266 264 262 260 258 258 258 260 263 265 267 268 269 269 270 270 270 271 272 272 272 272 272 273 273 271 270 269 268 268 268 268 269 270 271 272 271 272 272
254 254 254 255 255 256 257 258 259 259 260 261 261 262 262 262 263 263 264 266 267 268 269 271 271 272 273 274 275 275 276 276 276 276 277 276 276 277 277 277 277 277 277 277 277 276 275 273 271 268 265 263 262 262 264 266 269 270 271 271 272 273 273 273 273 274 274 274 274 274 273 273 273 273 272 270 269 268 267 268 269 270 270 271 272
257 257 257 257 257 257 257 258 259 259 260 261 262 262 263 263 264 265 265 265 266 267 268 269 270 270 271 272 272 273 274 274 275 275 275 276 276 276 276 276 277 277 277 278 278 278 278 278 278 277 275 273 271 270 270 271 273 273 273 273 273 274 274 274 274 273 274 274 274 274 274 274 275 274 273 273 273 272 271 270 270 270 270 271 271
262 262 262 262 262 262 262 262 262 262 263 263 263 264 264 265 265 266 266 267 267 268 268 269 269 269 270 270 270 271 271 272 272 272 273 273 273 273 273 274 274 274 274 274 274 275 276 276 277 277 277 276 276 275 274 274 273 273 272 272 271 271 272 272 272 271 271 272 272 272 273 273 274 274 274 274 274 275 274 274 274 273 273 272 272
263 264 265 266 266 267 267 267 267 267 267 268 268 268 268 268 268 268 268 268 269 269 269 269 269 269 270 270 270 270 270 270 270 269 269 270 270 270 270 270 270 271 271 271 271 271 272 272 273 273 273 273 273 273 272 272 270 269 268 268 268 268 269 270 270 270 271 271 271 271 271 271 271 272 272 273 273 273 274 274 275 274 274 274 274
263 264 264 265 266 266 267 267 268 269 269 269 269 270 270 271 271 272 272 272 272 272 272 273 273 273 273 273 273 273 273 273 273 272 272 272 272 272 272 272 272 272 272 272 272 272 272 272 272 272 272 273 273 273 273 272 271 269 268 269 269 269 268 268 269 270 271 271 271 271 272 271 271 272 271 271 271 271 272 273 274 274 274 274 274
262 263 264 264 264 265 265 265 266 267 267 268 268 269 270 270 270 271 271 271 272 272 273 273 274 274 274 275 275 275 275 275 275 275 275 275 275 276 276 276 276 276 276 276 276 276 275 275 275 274 274 274 274 274 274 273 272 271 270 270 270 270 269 268 268 268 269 270 270 270 270 270 271 273 273 273 272 272 272 273 274 274 275 275 275
262 263 263 263 264 264 265 265 266 266 267 267 268 268 269 269 269 269 270 270 270 271 271 272 272 272 273 273 273 273 274 274 274 275 275 275 275 275 275 275 275 275 275 276 276 276 276 275 275 275 275 274 274 274 273 272 271 271 270 269 269 268 267 267 267 266 267 267 267 267 267 268 270 272 273 274 274 273 273 273 273 274 275 276 277
263 263 263 263 263 264 265 265 266 266 267 268 268 268 268 269 269 269 269 269 270 270 270 270 270 271 271 271 272 272 273 273 274 274 275 275 275 275 275 274 274 274 274 274 274 274 274 274 274 274 274 273 273 272 272 271 270 269 269 268 267 266 266 265 265 265 266 265 264 264 265 266 267 268 270 271 272 273 273 273 273 274 275 276 276
Height
10688 10691 10695 10699 10704 10707 10708 10712 10715 10716 10717 10714 10703 10692 10686 10681 10682 10685 10686 10686 10687 10685 10682 10680 10681 10680 10679 10679 10680 10680 10681 10682 10683 10684 10684 10684 10685 10686 10686 10686 10687 10688 10689 10688 10688 10688 10688 10688 10687 10686 10685 10685 10684 10684 10683 10682 10681 10681 10683 10683 10684 10684 10684 10685 10686 10689 10691 10690 10690 10691 10691 10691 10690 10687 10684 10684 10684 10685 10686 10685 10685 10686 10686 10687 10687
10685 10689 10693 10698 10703 10706 10710 10714 10715 10714 10712 10705 10697 10688 10679 10676 10680 10683 10684 10684 10683 10680 10676 10675 10674 10674 10674 10675 10675 10675 10676 10677 10679 10679 10680 10681 10682 10683 10682 10682 10682 10682 10683 10683 10683 10683 10684 10684 10683 10682 10681 10681 10680 10679 10678 10676 10675 10675 10677 10678 10679 10680 10681 10682 10683 10686 10688 10688 10688 10689 10688 10688 10687 10685 10682 10682 10682 10683 10684 10683 10682 10682 10682 10683 10683
10682 10686 10691 10698 10705 10708 10710 10713 10711 10709 10704 10693 10686 10680 10674 10674 10679 10682 10682 10682 10680 10677 10675 10673 10671 10671 10671 10671 10670 10669 10671 10673 10674 10675 10676 10677 10678 10679 10679 10678 10677 10677 10678 10679 10678 10679 10679 10680 10679 10678 10677 10676 10675 10674 10672 10671 10669 10669 10670 10672 10674 10677 10678 10678 10679 10682 10685 10686 10686 10686 10686 10685 10684 10683 10682 10681 10681 10682 10682 10681 10680 10679 10679 10679 10679
10677 10681 10688 10699 10706 10705 10705 10706 10702 10697 10691 10680 10675 10673 10673 10675 10678 10679 10679 10678 10677 10677 10676 10673 10671 10670 10669 10668 10666 10666 10667 10669 10670 10671 10672 10673 10674 10675 10675 10674 10674 10674 10674 10675 10675 10674 10674 10675 10674 10674 10672 10671 10670 10669 10667 10666 10664 10664 10665 10667 10669 10672 10674 10675 10675 10677 10681 10683 10683 10682 10682 10682 10682 10681 10680 10678 10679 10680 10680 10679 10677 10676 10675 10675 10675
10670 10675 10685 10694 10697 10693 10695 10697 10690 10682 10678 10674 10673 10672 10673 10675 10676 10676 10676 10675 10675 10675 10674 10673 10671 10669 10667 10666 10665 10664 10665 10666 10667 10668 10668 10670 10671 10671 10672 10672 10672 10672 10672 10671 10671 10670 10669 10669 10670 10669 10668 10666 10664 10663 10662 10662 10661 10660 10660 10662 10664 10666 10669 10670 10671 10672 10675 10678 10679 10679 10679 10679 10679 10679 10678 10676 10676 10676 10676 10676 10674 10673 10672 10671 10670
10665 10671 10680 10683 10680 10679 10684 10684 10678 10672 10672 10674 10674 10673 10674 10674 10673 10673 10673 10673 10673 10673 10672 10671 10670 10668 10667 10666 10664 10662 10663 10664 10664 10665 10665 10666 10667 10668 10669 10670 10669 10669 10668 10668 10667 10667 10666 10665 10664 10664 10662 10661 10660 10659 10658 10657 10657 10657 10657 10658 10660 10662 10663 10665 10666 10667 10669 10672 10673 10675 10675 10675 10675 10675 10675 10674 10673 10672 10671 10671 10670 10670 10670 10668 10666
10664 10669 10673 10672 10667 10669 10673 10671 10668 10668 10670 10673 10672 10671 10672 10671 10669 10668 10669 10670 10670 10670 10669 10669 10668 10666 10666 10664 10663 10661 10660 10661 10661 10662 10662 10662 10663 10664 10665 10666 10666 10666 10665 10664 10663 10663 10663 10662 10659 10658 10656 10656 10656 10656 10655 10654 10654 10654 10653 10654 10656 10657 10658 10660 10661 10662 10664 10665 10667 10669 10670 10671 10671 10671 10671 10670 10670 10668 10667 10666 10666 10667 10667 10665 10664
10662 10664 10664 10663 10661 10663 10664 10663 10664 10664 10665 10665 10665 10665 10666 10666 10665 10664 10664 10665 10666 10666 10667 10666 10665 10664 10664 10662 10661 10659 10658 10658 10659 10660 10660 10660 10660 10660 10661 10662 10662 10662 10661 10661 10660 10659 10659 10657 10655 10653 10652 10652 10652 10652 10651 10651 10651 10651 10650 10650 10651 10653 10654 10655 10656 10657 10658 10659 10660 10662 10664 10666 10666 10666 10666 10667 10666 10665 10663 10661 10661 10662 10662 10662 10661
10656 10656 10656 10656 10656 10657 10657 10657 10659 10657 10656 10657 10658 10659 10660 10660 10660 10659 10659 10660 10662 10663 10663 10662 10662 10661 10660 10659 10658 10656 10656 10656 10656 10657 10657 10657 10658 10658 10659 10659 10659 10659 10659 10658 10658 10656 10655 10653 10651 10649 10648 10648 10648 10648 10648 10647 10647 10647 10646 10646 10646 10648 10649 10650 10651 10652 10653 10653 10654 10656 10657 10659 10659 10660 10661 10662 10662 10661 10659 10657 10657 10658 10658 10657 10656
10649 10649 10650 10650 10650 10650 10649 10650 10652 10650 10650 10652 10653 10655 10656 10655 10654 10654 10655 10656 10658 10659 10659 10659 10658 10658 10657 10656 10654 10653 10653 10653 10653 10654 10655 10655 10656 10656 10656 10657 10657 10657 10657 10656 10655 10654 10652 10650 10648 10646 10645 10645 10645 10644 10644 10644 10643 10643 10643 10643 10642 10643 10644 10646 10647 10648 10648 10648 10649 10650 10651 10652 10652 10653 10655 10656 10656 10655 10654 10653 10653 10653 10653 10652 10651
10642 10643 10645 10645 10644 10643 10642 10644 10646 10644 10644 10647 10649 10651 10652 10652 10651 10650 10651 10652 10653 10654 10654 10655 10655 10654 10653 10652 10651 10650 10649 10649 10650 10650 10651 10652 10653 10654 10654 10655 10655 10655 10654 10653 10652 10651 10650 10648 10646 10644 10644 10643 10642 10641 10641 10640 10640 10640 10640 10640 10639 10639 10640 10641 10643 10643 10643 10643 10644 10645 10645 10645 10646 10647 10648 10649 10649 10649 10649 10649 10649 10649 10648 10647 10646
10636 10638 10639 10639 10638 10637 10636 10640 10642 10640 10639 10642 10644 10646 10648 10648 10648 10647 10647 10647 10648 10649 10649 10650 10651 10651 10649 10648 10648 10646 10645 10645 10646 10647 10648 10649 10650 10651 10653 10653 10653 10652 10651 10650 10649 10648 10647 10645 10643 10642 10642 10641 10640 10639 10638 10637 10637 10636 10636 10636 10636 10635 10636 10637 10638 10638 10638 10638 10639 10639 10639 10640 10641 10642 10643 10643 10643 10643 10643 10644 10645 10644 10642 10642 10641
10630 10632 10633 10633 10633 10631 10632 10636 10637 10636 10635 10637 10639 10641 10642 10643 10643 10643 10643 10642 10643 10645 10645 10645 10646 10645 10644 10643 10642 10642 10641 10641 10642 10643 10643 10644 10646 10648 10649 10650 10650 10649 10648 10647 10646 10645 10644 10642 10641 10640 10639 10638 10637 10637 10636 10635 10634 10634 10633 10633 10632 10632 10632 10632 10632 10633 10633 10633 10633 10634 10634 10634 10635 10636 10637 10637 10637 10637 10637 10639 10640 10639 10637 10637 10637
10624 10625 10625 10625 10626 10626 10627 10630 10632 10632 10632 10634 10635 10636 10637 10638 10638 10638 10638 10639 10640 10641 10641 10641 10641 10640 10639 10638 10638 10638 10638 10638 10639 10639 10639 10639 10641 10642 10644 10645 10645 10645 10644 10643 10642 10642 10641 10639 10638 10637 10636 10636 10635 10634 10633 10633 10632 10632 10631 10631 10630 10629 10629 10629 10629 10629 10628 10628 10629 10629 10629 10629 10630 10630 10631 10631 10631 10630 10631 10634 10634 10633 10632 10632 10632
10617 10618 10618 10619 10620 10621 10623 10626 10629 10630 10630 10631 10631 10632 10634 10635 10634 10633 10633 10634 10635 10636 10637 10636 10636 10635 10635 10634 10634 10633 10634 10635 10635 10635 10634 10634 10634 10636 10637 10639 10639 10640 10640 10639 10638 10638 10637 10636 10635 10634 10633 10633 10632 10631 10630 10630 10629 10629 10630 10629 10629 10628 10628 10628 10627 10627 10626 10626 10626 10626 10626 10626 10625 10626 10626 10627 10626 10625 10626 10627 10627 10627 10626 10627 10627
10612 10614 10614 10616 10618 10619 10621 10624 10626 10627 10626 10626 10627 10629 10631 10631 10631 10629 10626 10627 10629 10631 10631 10631 10631 10631 10631 10631 10630 10629 10629 10630 10631 10631 10630 10629 10629 10629 10630 10632 10633 10633 10633 10633 10633 10632 10632 10631 10630 10630 10630 10630 10629 10628 10627 10626 10626 10626 10627 10627 10627 10627 10626 10626 10625 10625 10624 10623 10623 10623 10623 10622 10622 10622 10623 10623 10622 10621 10621 10621 10622 10621 10621 10622 10622
10608 10611 10613 10616 10616 10617 10619 10620 10621 10621 10621 10623 10625 10626 10627 10627 10627 10625 10622 10620 10622 10625 10626 10625 10625 10627 10627 10627 10626 10625 10625 10625 10626 10626 10625 10625 10624 10623 10623 10625 10626 10626 10627 10627 10627 10627 10626 10626 10625 10625 10626 10626 10626 10625 10624 10623 10622 10622 10623 10623 10624 10624 10624 10623 10623 10623 10622 10621 10620 10620 10619 10619 10619 10618 10619 10619 10618 10617 10617 10617 10616 10616 10616 10617 10617
10605 10608 10611 10613 10612 10613 10615 10615 10616 10617 10618 10619 10621 10622 10624 10624 10623 10622 10619 10616 10617 10620 10621 10621 10621 10623 10624 10623 10621 10620 10620 10621 10621 10620 10621 10621 10620 10618 10618 10618 10619 10619 10620 10620 10620 10620 10620 10619 10619 10620 10621 10622 10623 10622 10621 10620 10618 10618 10618 10619 10620 10620 10621 10621 10620 10621 10620 10619 10618 10617 10616 10615 10615 10615 10615 10615 10614 10614 10613 10612 10611 10611 10611 10612 10612
10602 10603 10604 10604 10604 10606 10609 10610 10612 10613 10613 10614 10614 10616 10619 10619 10617 10617 10616 10614 10614 10615 10617 10617 10618 10619 10620 10619 10617 10616 10615 10615 10615 10615 10616 10616 10615 10614 10613 10612 10612 10612 10613 10613 10613 10613 10613 10613 10613 10614 10615 10616 10618 10618 10617 10616 10615 10614 10614 10615 10616 10617 10617 10617 10617 10618 10617 10617 10616 10614 10613 10612 10611 10611 10611 10611 10610 10609 10608 10607 10607 10607 10607 10607 10607
10596 10599 10600 10600 10600 10602 10604 10606 10607 10607 10607 10608 10609 10610 10611 10611 10611 10612 10611 10611 10612 10612 10613 10614 10614 10615 10615 10614 10613 10612 10611 10610 10610 10610 10611 10611 10610 10609 10608 10607 10606 10606 10606 10606 10606 10606 10606 10606 10607 10608 10609 10610 10611 10612 10612 10612 10611 10611 10610 10611 10611 10612 10613 10614 10614 10614 10613 10613 10613 10612 10610 10609 10607 10607 10606 10606 10605 10604 10604 10603 10602 10601 10601 10601 10601
10591 10596 10599 10599 10598 10599 10600 10601 10602 10602 10602 10603 10603 10603 10604 10605 10606 10608 10607 10607 10608 10609 10609 10610 10610 10609 10609 10608 10607 10606 10606 10605 10605 10605 10605 10606 10606 10604 10603 10601 10600 10600 10599 10599 10599 10599 10600 10600 10601 10602 10603 10604 10605 10606 10607 10607 10606 10606 10606 10605 10606 10607 10608 10608 10608 10608 10608 10608 10608 10607 10606 10605 10604 10602 10601 10600 10599 10598 10599 10598 10596 10595 10595 10595 10595
10587 10591 10595 10594 10593 10594 10596 10596 10596 10597 10597 10597 10597 10597 10600 10601 10602 10603 10603 10602 10603 10604 10605 10605 10605 10604 10602 10601 10601 10600 10600 10600 10599 10599 10600 10601 10601 10600 10597 10595 10595 10594 10593 10592 10593 10593 10594 10595 10595 10596 10596 10597 10598 10599 10600 10601 10600 10600 10600 10599 10600 10600 10601 10602 10602 10603 10603 10602 10601 10601 10600 10599 10598 10597 10595 10594 10592 10593 10593 10593 10591 10589 10588 10587 10588
10581 10584 10587 10587 10587 10589 10590 10591 10592 10593 10593 10594 10594 10594 10595 10596 10597 10598 10598 10597 10597 10599 10601 10600 10600 10599 10597 10595 10595 10595 10594 10594 10593 10593 10594 10594 10595 10594 10592 10590 10589 10589 10587 10587 10588 10588 10588 10589 10589 10589 10590 10590 10591 10592 10593 10593 10593 10593 10593 10593 10593 10593 10594 10594 10595 10596 10596 10596 10595 10594 10593 10593 10592 10591 10589 10587 10586 10586 10587 10586 10585 10583 10582 10580 10580
10575 10576 10579 10580 10581 10583 10585 10586 10587 10589 10590 10591 10591 10591 10590 10590 10591 10592 10592 10591 10593 10595 10596 10596 10594 10592 10592 10591 10590 10589 10588 10587 10587 10586 10587 10588 10588 10588 10587 10586 10585 10583 10583 10583 10583 10582 10582 10583 10583 10584 10584 10584 10584 10585 10585 10586 10586 10586 10585 10585 10585 10585 10586 10586 10587 10588 10589 10589 10588 10587 10586 10586 10585 10584 10583 10582 10580 10580 10581 10580 10578 10577 10577 10574 10573
10568 10570 10572 10574 10576 10577 10579 10580 10582 10583 10585 10587 10588 10586 10584 10584 10585 10586 10586 10586 10588 10590 10592 10593 10589 10586 10586 10586 10585 10584 10583 10581 10580 10578 10579 10581 10582 10583 10582 10581 10580 10578 10577 10577 10577 10576 10576 10576 10577 10579 10579 10580 10579 10579 10579 10579 10579 10579 10578 10578 10578 10578 10578 10579 10580 10580 10581 10580 10580 10580 10579 10578 10578 10578 10579 10577 10574 10573 10573 10572 10571 10571 10572 10570 10568
10562 10564 10567 10569 10570 10571 10572 10573 10575 10577 10579 10581 10582 10579 10577 10578 10579 10579 10580 10581 10583 10585 10587 10587 10584 10581 10581 10582 10581 10580 10578 10575 10572 10571 10570 10572 10575 10576 10576 10576 10575 10573 10571 10570 10570 10570 10570 10571 10572 10573 10574 10574 10574 10574 10573 10572 10572 10572 10571 10571 10572 10571 10571 10572 10572 10573 10573 10572 10572 10571 10570 10570 10571 10571 10572 10570 10567 10566 10565 10564 10562 10563 10564 10566 10564
10556 10559 10562 10564 10564 10564 10564 10566 10569 10573 10575 10575 10575 10573 10571 10572 10574 10574 10574 10575 10576 10579 10581 10579 10576 10576 10577 10577 10578 10577 10574 10570 10568 10565 10564 10565 10567 10568 10568 10568 10568 10566 10565 10564 10564 10564 10565 10565 10566 10567 10568 10568 10568 10567 10566 10565 10565 10565 10565 10565 10565 10564 10564 10565 10565 10564 10564 10564 10562 10562 10562 10562 10562 10562 10563 10563 10561 10559 10558 10557 10555 10553 10554 10558 10558
10549 10552 10554 10555 10555 10555 10556 10558 10561 10565 10566 10565 10566 10567 10566 10567 10570 10569 10566 10568 10571 10574 10573 10570 10569 10571 10573 10573 10572 10570 10570 10570 10567 10562 10559 10560 10561 10561 10560 10559 10558 10557 10558 10558 10558 10559 10560 10560 10561 10561 10561 10561 10560 10559 10558 10557 10557 10558 10558 10558 10557 10556 10556 10556 10556 10556 10556 10556 10553 10553 10554 10555 10553 10552 10554 10554 10553 10552 10552 10551 10549 10547 10545 10547 10548
10543 10544 10546 10546 10546 10547 10549 10551 10553 10554 10554 10555 10557 10560 10561 10564 10567 10563 10561 10565 10568 10567 10565 10565 10566 10567 10568 10569 10565 10562 10565 10567 10563 10558 10555 10555 10555 10555 10554 10552 10551 10550 10551 10551 10552 10553 10554 10555 10555 10555 10554 10553 10552 10551 10550 10550 10550 10550 10550 10550 10549 10548 10548 10548 10548 10548 10549 10548 10546 10545 10546 10546 10545 10545 10546 10546 10544 10545 10545 10544 10543 10542 10539 10538 10539
10534 10535 10536 10537 10538 10539 10541 10544 10546 10546 10547 10549 10552 10555 10557 10559 10560 10558 10558 10563 10564 10561 10560 10563 10563 10560 10561 10562 10558 10554 10558 10560 10556 10551 10550 10550 10550 10548 10546 10544 10543 10544 10545 10545 10545 10546 10547 10548 10549 10548 10547 10546 10546 10545 10544 10544 10543 10543 10543 10543 10542 10542 10541 10540 10541 10542 10542 10541 10539 10538 10537 10537 10537 10538 10538 10538 10536 10536 10537 10537 10536 10535 10534 10532 10531
10522 10523 10525 10527 10529 10531 10533 10536 10538 10540 10541 10544 10547 10549 10551 10551 10550 10550 10552 10555 10556 10554 10554 10557 10555 10552 10551 10552 10550 10548 10549 10549 10547 10545 10545 10545 10544 10541 10538 10536 10536 10537 10538 10538 10539 10539 10540 10541 10541 10541 10541 10540 10539 10539 10538 10537 10537 10536 10536 10536 10536 10536 10535 10535 10535 10536 10536 10533 10531 10530 10530 10530 10530 10530 10531 10530 10529 10527 10528 10528 10527 10527 10526 10526 10525
10514 10514 10517 10520 10523 10525 10527 10529 10531 10532 10534 10535 10538 10540 10541 10541 10540 10541 10543 10546 10547 10546 10546 10546 10545 10543 10542 10542 10542 10541 10540 10539 10538 10539 10539 10539 10537 10532 10529 10530 10530 10530 10531 10532 10532 10533 10533 10533 10533 10533 10533 10533 10533 10532 10532 10531 10531 10531 10530 10529 10529 10529 10529 10530 10530 10530 10529 10526 10524 10523 10524 10524 10524 10523 10522 10522 10521 10520 10519 10518 10518 10517 10516 10516 10517
10508 10509 10512 10515 10518 10519 10521 10522 10523 10524 10523 10524 10525 10528 10529 10530 10531 10533 10536 10538 10538 10538 10537 10536 10535 10534 10534 10534 10535 10535 10534 10532 10532 10532 10532 10531 10528 10523 10520 10522 10524 10525 10525 10526 10526 10526 10527 10527 10527 10526 10526 10526 10525 10525 10525 10524 10525 10525 10524 10523 10522 10522 10523 10525 10525 10524 10521 10519 10518 10518 10518 10517 10515 10514 10513 10513 10512 10511 10510 10509 10508 10508 10506 10506 10507
10503 10504 10506 10509 10511 10513 10514 10514 10515 10514 10512 10512 10512 10515 10517 10520 10522 10525 10527 10528 10528 10527 10527 10526 10526 10527 10527 10527 10528 10528 10529 10528 10526 10526 10525 10524 10522 10517 10513 10514 10517 10518 10519 10520 10519 10519 10520 10521 10521 10520 10519 10519 10518 10518 10517 10517 10517 10517 10517 10517 10516 10515 10516 10518 10518 10517 10515 10513 10512 10513 10513 10510 10508 10506 10505 10505 10503 10502 10502 10501 10500 10500 10498 10498 10498
10496 10497 10499 10501 10503 10504 10505 10505 10505 10504 10503 10502 10502 10504 10507 10509 10512 10514 10515 10516 10517 10516 10516 10516 10517 10518 10518 10518 10518 10519 10520 10520 10519 10518 10518 10518 10516 10513 10509 10508 10510 10511 10512 10512 10511 10511 10511 10512 10513 10513 10512 10511 10511 10511 10510 10510 10510 10510 10510 10510 10508 10508 10510 10511 10511 10509 10508 10507 10506 10507 10506 10504 10503 10501 10500 10498 10497 10496 10495 10494 10493 10492 10491 10491 10491
10487 10488 10490 10492 10493 10494 10496 10497 10497 10496 10496 10495 10494 10495 10497 10500 10502 10503 10504 10505 10505 10506 10507 10507 10507 10508 10508 10509 10509 10508 10509 10510 10510 10510 10510 10510 10509 10507 10505 10504 10504 10504 10505 10503 10502 10501 10501 10502 10503 10504 10504 10503 10503 10503 10502 10502 10501 10502 10502 10502 10501 10500 10501 10503 10503 10501 10500 10499 10498 10498 10498 10497 10496 10494 10492 10492 10491 10490 10489 10488 10486 10485 10483 10483 10483
10478 10480 10481 10482 10484 10485 10486 10488 10489 10488 10488 10487 10486 10485 10487 10489 10492 10494 10494 10494 10494 10495 10496 10496 10497 10498 10500 10500 10500 10499 10499 10500 10500 10501 10501 10501 10500 10498 10497 10496 10496 10496 10495 10493 10491 10491 10491 10493 10494 10494 10495 10495 10494 10494 10495 10494 10493 10492 10493 10493 10492 10492 10492 10494 10495 10494 10491 10490 10489 10488 10488 10487 10487 10485 10482 10482 10482 10481 10481 10481 10479 10477 10475 10473 10474
10469 10471 10471 10472 10473 10475 10476 10478 10479 10479 10479 10479 10477 10476 10476 10478 10480 10483 10484 10483 10483 10485 10486 10486 10487 10489 10491 10492 10492 10491 10490 10490 10490 10490 10490 10489 10489 10488 10487 10487 10488 10488 10486 10483 10481 10480 10481 10482 10483 10484 10485 10485 10485 10484 10485 10486 10484 10483 10484 10483 10482 10483 10483 10484 10485 10485 10483 10482 10480 10477 10477 10477 10475 10473 10471 10471 10472 10471 10471 10472 10472 10470 10466 10464 10466
10461 10462 10462 10463 10464 10465 10466 10468 10469 10470 10470 10470 10469 10468 10467 10467 10468 10470 10471 10472 10472 10474 10476 10477 10478 10479 10481 10481 10481 10480 10480 10479 10479 10479 10479 10479 10478 10477 10477 10478 10479 10479 10477 10474 10472 10471 10472 10472 10472 10474 10475 10476 10475 10474 10474 10474 10474 10474 10474 10473 10473 10473 10474 10473 10474 10474 10474 10473 10471 10468 10466 10465 10463 10461 10460 10461 10461 10461 10461 10463 10463 10462 10458 10456 10458
10453 10453 10454 10455 10455 10456 10457 10458 10459 10460 10461 10461 10460 10460 10459 10458 10458 10459 10459 10460 10461 10462 10464 10465 10466 10467 10468 10469 10469 10469 10469 10469 10468 10468 10469 10469 10469 10467 10466 10467 10468 10469 10468 10466 10464 10463 10463 10463 10462 10463 10464 10465 10465 10464 10462 10463 10463 10464 10464 10464 10464 10464 10463 10462 10463 10463 10463 10463 10460 10458 10456 10454 10452 10451 10449 10449 10450 10450 10452 10453 10454 10453 10450 10449 10450
10444 10445 10445 10446 10446 10446 10447 10448 10449 10450 10451 10451 10451 10451 10450 10450 10449 10449 10449 10450 10450 10450 10451 10453 10453 10454 10455 10455 10456 10457 10457 10458 10458 10457 10457 10457 10456 10456 10455 10455 10455 10456 10457 10456 10455 10454 10454 10454 10453 10454 10455 10455 10455 10454 10453 10452 10453 10453 10454 10455 10455 10454 10453 10452 10452 10452 10452 10451 10448 10446 10445 10444 10442 10440 10439 10440 10441 10441 10443 10444 10445 10445 10443 10441 10441
10435 10435 10436 10436 10436 10437 10437 10438 10439 10440 10441 10441 10442 10442 10441 10440 10440 10439 10440 10440 10441 10441 10442 10442 10442 10442 10441 10442 10443 10443 10444 10444 10444 10444 10444 10443 10442 10442 10442 10441 10441 10442 10443 10443 10443 10442 10442 10442 10442 10443 10445 10447 10447 10446 10444 10443 10443 10443 10443 10443 10444 10443 10443 10442 10442 10441 10440 10438 10436 10434 10433 10431 10429 10429 10431 10433 10433 10433 10434 10435 10435 10435 10434 10433 10432
10426 10426 10427 10427 10427 10428 10428 10428 10429 10430 10431 10431 10432 10432 10431 10431 10431 10430 10431 10432 10432 10432 10432 10432 10432 10431 10430 10430 10430 10430 10431 10431 10430 10430 10430 10430 10429 10428 10428 10428 10427 10427 10428 10428 10428 10427 10427 10429 10429 10430 10433 10437 10439 10437 10436 10434 10434 10433 10431 10431 10431 10431 10431 10432 10431 10429 10426 10425 10425 10424 10419 10415 10415 10419 10422 10424 10424 10425 10426 10426 10426 10425 10424 10423 10423
10415 10416 10417 10417 10418 10419 10419 10418 10419 10420 10421 10422 10422 10422 10422 10422 10423 10423 10423 10424 10424 10424 10423 10423 10422 10422 10421 10420 10419 10419 10418 10418 10418 10418 10417 10417 10417 10416 10416 10416 10415 10415 10415 10414 10414 10412 10412 10413 10415 10416 10419 10424 10427 10426 10425 10424 10423 10421 10420 10421 10420 10419 10420 10421 10420 10417 10414 10412 10412 10409 10403 10401 10404 10408 10410 10411 10413 10414 10415 10416 10416 10415 10415 10414 10413
10404 10405 10407 10408 10409 10410 10410 10409 10410 10410 10411 10412 10412 10411 10412 10413 10414 10414 10415 10415 10415 10415 10415 10414 10413 10412 10412 10411 10410 10409 10408 10407 10407 10406 10406 10406 10406 10405 10405 10404 10403 10403 10403 10402 10401 10400 10398 10399 10401 10402 10404 10407 10411 10412 10412 10411 10411 10409 10408 10409 10409 10408 10409 10409 10408 10405 10402 10400 10397 10394 10390 10389 10392 10394 10396 10398 10400 10401 10403 10404 10404 10404 10405 10405 10404
10392 10394 10396 10397 10398 10399 10399 10399 10399 10400 10401 10401 10401 10400 10402 10403 10404 10404 10404 10405 10405 10405 10404 10403 10402 10401 10401 10400 10400 10399 10398 10397 10396 10395 10395 10395 10394 10394 10394 10393 10392 10392 10392 10391 10391 10390 10389 10388 10389 10389 10389 10391 10395 10398 10398 10398 10398 10397 10396 10397 10397 10398 10398 10396 10393 10392 10390 10387 10384 10380 10378 10377 10378 10379 10382 10385 10387 10387 10389 10390 10392 10393 10394 10394 10394
10381 10382 10384 10386 10387 10388 10387 10386 10386 10388 10389 10389 10388 10389 10390 10392 10392 10392 10393 10393 10393 10392 10391 10390 10389 10389 10388 10388 10387 10386 10385 10384 10383 10383 10382 10382 10382 10382 10382 10382 10381 10380 10379 10379 10379 10378 10378 10377 10377 10377 10378 10379 10381 10384 10385 10384 10383 10383 10384 10384 10385 10387 10387 10383 10379 10379 10378 10374 10370 10367 10365 10363 10364 10366 10370 10373 10374 10375 10376 10378 10380 10381 10381 10382 10383
10371 10372 10374 10375 10376 10376 10375 10373 10375 10377 10377 10376 10377 10378 10379 10380 10380 10380 10380 10380 10379 10379 10378 10376 10375 10375 10374 10374 10373 10372 10371 10370 10369 10369 10368 10368 10367 10368 10368 10368 10367 10365 10364 10364 10364 10364 10364 10363 10363 10364 10365 10366 10367 10369 10371 10369 10366 10367 10370 10372 10373 10375 10374 10371 10368 10368 10365 10360 10357 10354 10350 10347 10347 10350 10355 10360 10362 10363 10364 10366 10367 10368 10369 10370 10372
10361 10362 10364 10365 10364 10363 10362 10363 10364 10366 10365 10365 10366 10367 10368 10368 10369 10369 10368 10368 10367 10366 10365 10364 10363 10362 10361 10360 10358 10357 10357 10356 10356 10355 10355 10354 10354 10353 10353 10353 10352 10350 10349 10348 10349 10350 10349 10348 10348 10348 10349 10351 10352 10354 10355 10353 10351 10352 10356 10359 10361 10360 10359 10357 10357 10356 10352 10349 10346 10342 10336 10333 10334 10336 10339 10343 10348 10350 10352 10353 10353 10354 10356 10357 10359
10350 10351 10353 10353 10351 10350 10350 10352 10353 10354 10353 10354 10355 10356 10356 10356 10356 10356 10355 10355 10355 10354 10353 10352 10350 10349 10347 10345 10344 10343 10342 10342 10342 10342 10341 10340 10339 10338 10339 10340 10339 10336 10334 10333 10334 10335 10334 10333 10333 10334 10335 10336 10337 10338 10338 10337 10337 10338 10341 10344 10347 10346 10345 10343 10342 10342 10342 10338 10331 10326 10323 10323 10324 10326 10327 10328 10332 10335 10338 10339 10340 10342 10344 10345 10346
10337 10339 10341 10340 10339 10339 10339 10340 10341 10341 10341 10342 10343 10342 10342 10342 10342 10343 10342 10342 10342 10341 10340 10338 10336 10335 10333 10332 10330 10329 10329 10328 10328 10328 10327 10326 10324 10322 10321 10323 10325 10324 10320 10318 10318 10319 10319 10319 10319 10320 10321 10321 10322 10322 10322 10322 10322 10323 10325 10329 10331 10331 10331 10330 10328 10329 10329 10322 10314 10312 10314 10315 10315 10317 10317 10318 10319 10322 10324 10326 10329 10333 10334 10334 10334